Lumberton, NC

11:31 AM EDT on July 26, 2017 (GMT -0400)
Lumberton Municipal

Weather History for KLBT - May, 2014

Change the Weather History Date:

Saturday, May 10, 2014

  Actual Average Record
Temperature  
Mean Temperature 80 °F 68 °F  
Max Temperature 89 °F 81 °F 91 °F (2000)
Min Temperature 70 °F 55 °F 49 °F (2006)
Degree Days  
Heating Degree Days 0 1  
Month to date heating degree days 4 20  
Since 1 July heating degree days 2932 2749  
Cooling Degree Days 15 4  
Month to date cooling degree days 62 37  
Year to date cooling degree days 113 105  
Growing Degree Days 29 (Base 50)    
Moisture  
Dew Point 64 °F    
Average Humidity 67    
Maximum Humidity 97    
Minimum Humidity 37    
Precipitation  
Precipitation 0.00 in 0.09 in 0.39 in (2002)
Month to date precipitation 0.01 0.73  
Year to date precipitation 13.67 12.75  
Sea Level Pressure  
Sea Level Pressure 30.10 in    
Wind  
Wind Speed 7 mph (SSW)    
Max Wind Speed 16 mph    
Max Gust Speed 22 mph    
Visibility 9 miles    
Events      
T = Trace of Precipitation, MM = Missing Value Source: NWS Daily Summary

Daily Weather History Graph

Daily Weather History Graph

Search for Another Location

Airport or City:

Trip Planner

Search our weather history database for the weather conditions in past years. The results will help you decide how hot, cold, wet, or windy it might be!

Date:

Astronomy

May. 10, 2014 Rise Set
Actual Time 6:17 AM EDT 8:08 PM EDT
Civil Twilight 5:50 AM EDT 8:35 PM EDT
Nautical Twilight 5:16 AM EDT 9:09 PM EDT
Astronomical Twilight 4:41 AM EDT 9:44 PM EDT
Moon 4:12 PM EDT (5/10) 3:38 AM EDT (5/10)
Length of Visible Light 14h 45m
Length of Day
13h 50m
Waxing Gibbous, 82% of the Moon is Illuminated
May 10
Waxing Gibbous
May 14
Full
May 21
Last Quarter
May 28
New
Jun 5
First Quarter

Hourly Weather History & Observations

Time (EDT) Temp. Heat Index Dew Point Humidity Pressure Visibility Wind Dir Wind Speed Gust Speed Precip Events Conditions
12:54 AM 73.0 °F - 64.9 °F 76% 30.11 in 10.0 mi Calm Calm - N/A   Clear
1:54 AM 72.0 °F - 64.9 °F 78% 30.10 in 10.0 mi Variable 4.6 mph - N/A   Partly Cloudy
2:54 AM 72.0 °F - 64.9 °F 78% 30.09 in 9.0 mi SSW 5.8 mph - N/A   Clear
3:54 AM 71.1 °F - 66.9 °F 87% 30.07 in 8.0 mi South 6.9 mph - N/A   Clear
4:54 AM 70.0 °F - 66.9 °F 90% 30.09 in 6.0 mi SW 5.8 mph - N/A   Clear
5:54 AM 70.0 °F - 68.0 °F 93% 30.09 in 5.0 mi SSW 5.8 mph - N/A   Mostly Cloudy
6:54 AM 71.1 °F - 69.1 °F 93% 30.11 in 4.0 mi SSW 3.5 mph - N/A   Mostly Cloudy
7:54 AM 73.9 °F - 69.1 °F 85% 30.14 in 6.0 mi SSW 5.8 mph - N/A   Haze
8:39 AM 75.0 °F - 69.1 °F 82% 30.15 in 6.0 mi SW 8.1 mph - N/A   Haze
8:54 AM 75.0 °F - 69.1 °F 82% 30.15 in 7.0 mi SW 8.1 mph - N/A   Mostly Cloudy
9:17 AM 75.9 °F - 69.1 °F 79% 30.15 in 7.0 mi SSW 8.1 mph - N/A   Scattered Clouds
9:26 AM 78.1 °F - 70.0 °F 76% 30.15 in 7.0 mi SSW 10.4 mph 16.1 mph N/A   Mostly Cloudy
9:54 AM 79.0 °F - 66.9 °F 66% 30.14 in 9.0 mi SSW 10.4 mph 18.4 mph N/A   Mostly Cloudy
10:04 AM 80.1 °F 82.3 °F 66.9 °F 64% 30.15 in 9.0 mi SSW 9.2 mph 19.6 mph N/A   Scattered Clouds
10:54 AM 82.0 °F 83.8 °F 64.9 °F 56% 30.14 in 10.0 mi SW 6.9 mph 17.3 mph N/A   Partly Cloudy
11:54 AM 84.9 °F 86.1 °F 64.0 °F 49% 30.13 in 10.0 mi WSW 9.2 mph 18.4 mph N/A   Clear
12:54 PM 87.1 °F 87.8 °F 63.0 °F 44% 30.11 in 10.0 mi South 9.2 mph - N/A   Clear
1:54 PM 86.0 °F 86.1 °F 61.0 °F 43% 30.09 in 10.0 mi SW 12.7 mph 21.9 mph N/A   Clear
2:54 PM 88.0 °F 87.1 °F 59.0 °F 37% 30.06 in 10.0 mi SSW 13.8 mph - N/A   Clear
3:54 PM 88.0 °F 87.9 °F 61.0 °F 40% 30.04 in 10.0 mi SW 11.5 mph 16.1 mph N/A   Clear
4:54 PM 84.9 °F 84.2 °F 57.9 °F 40% 30.02 in 10.0 mi SSW 9.2 mph - N/A   Clear
5:54 PM 84.0 °F 82.9 °F 55.0 °F 37% 30.03 in 10.0 mi SSW 9.2 mph - N/A   Clear
6:54 PM 81.0 °F 81.0 °F 57.0 °F 44% 30.04 in 10.0 mi SW 8.1 mph - N/A   Clear
7:54 PM 77.0 °F - 60.1 °F 56% 30.04 in 10.0 mi Calm Calm - N/A   Clear
8:54 PM 77.0 °F - 59.0 °F 54% 30.06 in 10.0 mi Calm Calm - N/A   Clear
9:54 PM 75.9 °F - 60.1 °F 58% 30.08 in 10.0 mi South 4.6 mph - N/A   Clear
10:54 PM 75.0 °F - 63.0 °F 66% 30.09 in 10.0 mi South 4.6 mph - N/A   Clear
11:54 PM 73.0 °F - 64.0 °F 73% 30.09 in 10.0 mi South 4.6 mph - N/A   Clear